Location: Church of Christ Caddo Street
(32.3446°N, 97.3853°W)
Time: 13:29:05
(UTC+00:00)

Daily predictions for brighter satellites

Satellite Brightness Start Highest point End
(mag) Time Altitude Azimuth Time Altitude Azimuth Time Altitude Azimuth
ASTRO E2 3.6 12:02:07 22° WSW 12:03:47 33° SSW 12:07:06 10° SE
ERS-2 2.0 12:01:32 10° NNE 12:04:27 61° ESE 12:07:20 10° S
Cosmos 1634 Rocket 4.2 12:00:57 10° S 12:07:05 75° E 12:13:16 10° N
SKYMED 2 3.5 12:02:52 10° S 12:07:09 64° W 12:11:28 10° NNW
Nadezhda 4 Rocket 4.0 12:03:11 10° NNW 12:09:12 59° W 12:15:14 10° S
Milstar 3 Cent rocket 3.3 12:05:31 16° WSW 12:09:38 47° S 12:18:20 10° ESE
Cosmos 1624 Rocket 3.9 12:04:42 10° NNW 12:09:52 71° WSW 12:15:02 10° S
Cosmos 1932 4.5 12:08:41 10° NNW 12:15:01 87° ENE 12:21:11 10° SSE
COSMOS 2428 2.6 12:09:57 10° SSW 12:15:34 68° WNW 12:21:16 10° NNE
Cosmos 2333 Rocket 3.4 12:13:29 15° W 12:16:10 20° WNW 12:20:20 10° NNW
JB-3 4.3 12:13:24 10° S 12:17:27 73° W 12:21:30 10° NNW
NOSS 0 Rocket 4.2 12:16:08 10° SSW 12:22:21 75° ESE 12:28:35 10° NNE
SMAP 4.2 12:20:37 10° NNE 12:25:07 47° E 12:29:34 10° S
Lacrosse 5 rocket 2.1 12:26:26 10° WSW 12:30:12 32° NW 12:34:07 10° NNE
SL-08 R/B 3.6 12:26:34 10° S 12:31:08 47° W 12:35:39 10° NNW
Cosmos 1933 3.2 12:27:14 10° NNW 12:31:09 64° W 12:35:02 10° S
SJ-7 4.4 12:27:16 10° N 12:31:22 85° WNW 12:35:26 10° SSW
Cosmos 1844 Rocket 3.9 12:29:01 10° NW 12:33:13 22° W 12:37:29 10° SSW
Cosmos 1544 2.9 12:30:35 10° S 12:33:45 78° E 12:36:56 10° N
Cosmos 1953 Rocket 3.5 12:30:52 10° SSW 12:35:14 66° W 12:39:41 10° N
Cosmos 2279 Rocket 4.2 12:29:09 10° S 12:35:23 83° E 12:41:40 10° N
COSMOS 2455 3.3 12:31:25 10° NW 12:37:02 42° WSW 12:42:36 10° S
ATLAS 3B R/B 4.4 12:34:46 10° NW 12:37:02 11° NW 12:39:21 10° NNW
H-2A R/B 3.5 12:35:24 10° NW 12:37:52 14° WNW 12:40:20 10° W
SJ-11-01 4.3 12:33:19 10° N 12:37:54 59° WNW 12:42:29 10° SSW
Meteor 2-3 Rocket 4.3 12:32:59 10° SW 12:38:00 34° WNW 12:43:02 10° NNW
Cosmos-2242 4.3 12:35:06 10° NW 12:38:11 20° W 12:41:15 10° SW
Cosmos 1515 4.1 12:35:11 10° N 12:38:46 62° E 12:42:19 10° SSE
CZ-2D R/B 3.6 12:40:00 10° N 12:43:24 38° WNW 12:46:47 10° SW
USA 281 4.5 12:40:59 10° NNW 12:44:57 17° NW 12:48:56 10° W
Cosmos 2278 Rocket 3.8 12:41:16 10° N 12:46:21 33° ENE 12:51:24 10° SE
SeaSat 1 4.3 12:42:43 10° ESE 12:46:48 27° ENE 12:50:55 10° N
Cosmos 2237 Rocket 2.4 12:42:03 10° SSW 12:47:43 82° ESE 12:53:23 10° NNE
Cosmos 1862 3.8 12:44:17 10° SSW 12:47:50 36° W 12:51:24 10° NNW
USA 215 4.2 12:42:59 10° NNE 12:48:11 26° NNW 12:53:23 10° W
Cosmos 2221 2.4 12:44:10 10° N 12:48:24 73° W 12:52:37 10° S
Nadezhda 4 Rocket 4.3 23:41:51 10° SSE 23:47:40 45° E 23:53:28 10° NNE
Cosmos 2263 Rocket 2.5 23:43:57 10° SSW 23:49:28 72° WNW 23:55:02 10° NNE
Cosmos 1844 Rocket 4.1 23:47:28 10° SE 23:51:08 18° E 23:54:48 10° ENE
ERS-2 3.6 23:48:47 10° SSW 23:51:29 34° W 23:54:12 10° NNW
Cosmos 1544 2.7 23:49:44 10° N 23:52:59 82° E 23:56:13 10° S
Tiangong -1.7 23:51:04 10° NW 23:54:06 42° NNE 23:57:06 10° E
Cosmos 1782 4.4 23:52:44 10° SE 23:55:09 16° E 23:57:34 10° NE
